sat.trackr.live / text

‹ back to catalog

STARLINK-34298

NORAD 64269 · 2025-120P

PAYLOAD ACTIVE UNKNOWN

§ Identity

Operator
Country
US
Launch date
2025-06-04
Launch site
AFWTR
Launch vehicle
Mass (kg)
RCS (m²)

Purposes: comms

External: N2YO · Heavens-Above · Gunter

§ Orbital elements

Epoch: 2026-05-25T04:47:35.158272Z

Period
93.85 min
Inclination
53.1593°
Eccentricity
0.0001541
Mean motion
15.34410818 rev/d
Perigee alt
461.6 km
Apogee alt
463.7 km
Semi-major
6,840.8 km
B*
6.9109e-4
RAAN
118.9373°
Arg perigee
89.2403°
Mean anomaly
270.8776°
Rev number
5,556

§ Raw data

STARLINK-342981 64269U 25120P   26145.19971248  .00023053  00000+0  69109-3 0  99962 64269  53.1593 118.9373 0001541  89.2403 270.8776 15.34410818 55567

JSON: /api/v1/satellites/64269 · /tle

For live sub-satellite position, see the globe view (requires WebGL).

§ Visibility from observer

Set your observer location to see the next 7 days of passes ≥ 10°. The values pass through the URL so the page stays shareable.

No JS? Fill the form by hand. The geolocation button needs JavaScript.